View Data : List Evapotranspiration (ETo ) Reports


 
Search Evapotranspiration Reports
Station Fields:
Location:
Date Range:
Start Date:   End Date:
Searched: Report date on 4/13/2021.
Showing 1 - 50 of 52 Records. <Back  Page   Next>
DateTimeStation NumberStation NameGaugeReadingRefill LevelEvap AmtView
4/13/2021  4:30 AM  MN-HN-78  Richfield 1.9 WNW 0.55  0.05   
4/13/2021  5:00 AM  NY-CQ-22  Fredonia 0.8 WNW 1.66  0.04   
4/13/2021  5:09 AM  MO-CP-7  Boonville 0.5 ESE 1.04  0.13   
4/13/2021  5:15 AM  WA-SJ-28  Lopez Island 3.9 NNE 1.65  0.07   
4/13/2021  5:30 AM  AL-MD-90  Huntsville 3.7 ENE 5.45  0.17   
4/13/2021  5:30 AM  IN-TN-1  Atlanta 4.4 W 0.35  0.05   
4/13/2021  6:00 AM  CA-SJ-5  Lodi 1.0 NNW 4.90  0.20   
4/13/2021  6:00 AM  TN-MA-3  Jasper 1.7 N 3.61  0.19   
4/13/2021  6:20 AM  NY-AL-12  Rushford COOP 0.21  0.00   
4/13/2021  6:30 AM  OH-DR-1  Bradford 2.3 NW 0.59  0.02   
4/13/2021  6:30 AM  TX-ER-4  Stephenville 2.6 NNW 0.90  0.20   
4/13/2021  7:00 AM  AZ-MR-326  Phoenix 6.3 SSW 7.24  0.11   
4/13/2021  7:00 AM  AZ-PN-50  Saddlebrooke 1.5 SW 8.29  0.28   
4/13/2021  7:00 AM  CA-HM-5  Mckinleyville 7.3 ESE 0.74  0.07   
4/13/2021  7:00 AM  CA-SD-12  Poway 3.2NE 10.25 0.12 0.12   
4/13/2021  7:00 AM  CA-SN-100  Glen Ellen 1.9 NNW 0.49  0.17   
4/13/2021  7:00 AM  FL-MR-66  The Villages 3.7 NNW 7.42  0.12   
4/13/2021  7:00 AM  IL-DK-28  De Kalb 0.7 SW 0.74  0.09   
4/13/2021  7:00 AM  IN-HR-5  Milltown 5.7 SSE 2.58  0.11   
4/13/2021  7:00 AM  IN-OW-9  Spencer 7.0 S 1.67  0.09   
4/13/2021  7:00 AM  IA-CL-4  Murray 1.7 W 0.67  0.11   
4/13/2021  7:00 AM  KY-FR-1  Frankfort 3.3 NE 1.95  0.10   
4/13/2021  7:00 AM  KY-ME-8  Harrodsburg 10.8 NW 0.09  0.08   
4/13/2021  7:00 AM  ME-YK-2  Kittery Point 0.8 WSW 0.63  0.06   
4/13/2021  7:00 AM  MD-CR-19  Eldersburg 0.9 E 0.62  0.11   
4/13/2021  7:00 AM  MD-HR-23  Norrisville 0.6 WSW 0.60  0.01   
4/13/2021  7:00 AM  NM-BR-183  Sandia Park 3.6 ESE 1.61  0.12   
4/13/2021  7:00 AM  OH-PB-1  Eaton 1.0 N 0.92  0.05   
4/13/2021  7:00 AM  OK-PY-9  Glencoe 3.0 W 7.00 2.40 0.00   
4/13/2021  7:00 AM  PA-MT-85  Skippack 2.6 ESE 0.00  0.00   
4/13/2021  7:00 AM  SC-AK-75  Graniteville 1.2 NE 2.22  0.15   
4/13/2021  7:00 AM  SC-HR-67  Myrtle Beach 8.4 WNW 4.25  0.20   
4/13/2021  7:00 AM  TN-PT-3  Byrdstown 2.8 SSW 2.99  0.17   
4/13/2021  7:00 AM  TN-WN-10  Green Hill 0.3 N 0.98  0.15   
4/13/2021  7:00 AM  TX-BXR-168  Hollywood Park 4.3 ENE 6.51  0.21   
4/13/2021  7:00 AM  TX-TV-9  West Lake Hills 2.4 NNW 1.35  0.20   
4/13/2021  7:00 AM  WA-TH-28  Olympia 7.0 NNE 0.91  0.06   
4/13/2021  7:00 AM  WA-WC-52  Bellingham 2.3 S 1.01  0.11   
4/13/2021  7:00 AM  CAN-ON-92  Dunrobin 1.9 W - MVCA 0.38  0.11   
4/13/2021  7:05 AM  MN-DK-53  Lakeville 3.8 ENE 6.97 0.29 0.00   
4/13/2021  7:09 AM  NJ-MN-64  Howell Twp 3.7 SSW 0.48  0.00   
4/13/2021  7:21 AM  IL-HM-4  McLeansboro 7.8 SE 1.70  0.40   
4/13/2021  7:30 AM  GA-CO-3  Adel 1.9 SSE 2.40  0.16   
4/13/2021  8:00 AM  CA-BT-5  Oroville 4.8 E 6.28  0.18   
4/13/2021  8:00 AM  IN-MR-13  Speedway 6.2 SSW 0.62  0.09   
4/13/2021  8:00 AM  PA-CH-41  Wickerton 0.4 NW 0.10  0.10   
4/13/2021  8:00 AM  TX-BLC-35  Kendalia 5.0 NNE 3.00  0.10   
4/13/2021  8:00 AM  TX-KN-106  Boerne 1.6 ESE 0.00 0.00 0.00   
4/13/2021  8:00 AM  TX-MDL-36  Midland 5.8 SSE 1.20  0.00   
4/13/2021  8:00 AM  WV-CB-17  Huntington 1.7 ESE 0.62  0.05   
Showing 1 - 50 of 52 Records. <Back  Page   Next>